Golden Triangle, MS

4:55 AM CDT on May 27, 2017 (GMT -0500)
Golden Triangle Regional

Weather History for KGTR - August, 2014

Change the Weather History Date:

Saturday, August 23, 2014

  Actual Average Record
Temperature  
Mean Temperature 84 °F -  
Max Temperature 98 °F 88 °F 104 °F (2007)
Min Temperature 69 °F 67 °F 59 °F (1997)
Cooling Degree Days 18    
Growing Degree Days 34 (Base 50)    
Moisture  
Dew Point 68 °F    
Average Humidity 67    
Maximum Humidity 88    
Minimum Humidity 35    
Precipitation  
Precipitation 0.00 in - - ()
Sea Level Pressure  
Sea Level Pressure 29.99 in    
Wind  
Wind Speed 2 mph (NW)    
Max Wind Speed 9 mph    
Max Gust Speed -    
Visibility 10 miles    
Events      
Averages and records for this station are not official NWS values.
T = Trace of Precipitation, MM = Missing Value Source: NWS Daily Summary

Daily Weather History Graph

Daily Weather History Graph

Search for Another Location

Airport or City:

Trip Planner

Search our weather history database for the weather conditions in past years. The results will help you decide how hot, cold, wet, or windy it might be!

Date:

Astronomy

Aug. 23, 2014 Rise Set
Actual Time 6:22 AM CDT 7:31 PM CDT
Civil Twilight 5:56 AM CDT 7:56 PM CDT
Nautical Twilight 5:25 AM CDT 8:27 PM CDT
Astronomical Twilight 4:54 AM CDT 8:58 PM CDT
Moon 4:40 AM CDT (8/23) 6:14 PM CDT (8/23)
Length of Visible Light 14h 00m
Length of Day
13h 08m
Waning Crescent, 3% of the Moon is Illuminated
Aug 23
Waning Crescent
Aug 25
New
Sep 2
First Quarter
Sep 8
Full
Sep 15
Last Quarter

Hourly Weather History & Observations

Time (CDT) Temp. Heat Index Dew Point Humidity Pressure Visibility Wind Dir Wind Speed Gust Speed Precip Events Conditions
12:15 AM 75.2 °F - 68.0 °F 78% 30.02 in 10.0 mi Calm Calm - N/A   Clear
12:35 AM 75.2 °F - 68.0 °F 78% 30.02 in 10.0 mi Calm Calm - N/A   Clear
12:55 AM 73.4 °F - 68.0 °F 83% 30.01 in 10.0 mi Calm Calm - N/A   Clear
1:15 AM 73.4 °F - 66.2 °F 78% 30.01 in 10.0 mi Calm Calm - N/A   Clear
1:35 AM 75.2 °F - 66.2 °F 73% 30.01 in 10.0 mi Calm Calm - N/A   Clear
1:55 AM 73.4 °F - 66.2 °F 78% 30.01 in 10.0 mi Calm Calm - N/A   Clear
2:15 AM 73.4 °F - 66.2 °F 78% 30.00 in 10.0 mi Calm Calm - N/A   Clear
2:35 AM 73.4 °F - 66.2 °F 78% 30.01 in 10.0 mi NW 3.5 mph - N/A   Clear
2:55 AM 73.4 °F - 66.2 °F 78% 30.01 in 10.0 mi Calm Calm - N/A   Clear
3:15 AM 73.4 °F - 66.2 °F 78% 30.02 in 10.0 mi Calm Calm - N/A   Clear
3:35 AM 75.2 °F - 68.0 °F 78% 30.01 in 10.0 mi Calm Calm - N/A   Clear
4:15 AM 71.6 °F - 64.4 °F 78% 30.02 in 10.0 mi Calm Calm - N/A   Clear
4:35 AM 71.6 °F - 64.4 °F 78% 30.02 in 10.0 mi Calm Calm - N/A   Clear
4:55 AM 69.8 °F - 64.4 °F 83% 30.02 in 10.0 mi Calm Calm - N/A   Clear
5:15 AM 69.8 °F - 66.2 °F 88% 30.02 in 10.0 mi Calm Calm - N/A   Clear
5:35 AM 69.8 °F - 64.4 °F 83% 30.03 in 10.0 mi Calm Calm - N/A   Clear
6:55 AM 71.6 °F - 66.2 °F 83% 30.05 in 10.0 mi Calm Calm - N/A   Clear
7:50 AM 75.2 °F - 68.0 °F 78% 30.05 in 10.0 mi Calm Calm - N/A   Clear
8:50 AM 82.4 °F 87.2 °F 71.6 °F 70% 30.05 in 10.0 mi NNW 4.6 mph - N/A   Clear
9:50 AM 87.8 °F 93.8 °F 71.6 °F 58% 30.06 in 10.0 mi NNW 6.9 mph - N/A   Clear
10:55 AM 93.2 °F 102.4 °F 73.4 °F 52% 30.05 in 10.0 mi NNW 6.9 mph - N/A   Clear
11:50 AM 95.0 °F 101.3 °F 69.8 °F 44% 30.04 in 10.0 mi NNW 4.6 mph - N/A   Partly Cloudy
12:45 PM 96.8 °F 100.7 °F 66.2 °F 37% 30.03 in 10.0 mi NNW 9.2 mph - N/A   Partly Cloudy
1:55 PM 96.8 °F 100.7 °F 66.2 °F 37% 30.01 in 10.0 mi NW 5.8 mph - N/A   Partly Cloudy
3:45 PM 96.8 °F 100.7 °F 66.2 °F 37% 29.97 in 10.0 mi NW 5.8 mph - N/A   Partly Cloudy
4:45 PM 98.6 °F 102.8 °F 66.2 °F 35% 29.94 in 10.0 mi NW 6.9 mph - N/A   Partly Cloudy
5:45 PM 96.8 °F 101.8 °F 68.0 °F 39% 29.93 in 10.0 mi NNW 5.8 mph - N/A   Clear
6:45 PM 93.2 °F 98.8 °F 69.8 °F 46% 29.93 in 10.0 mi NNW 5.8 mph - N/A   Clear
7:45 PM 87.8 °F 92.6 °F 69.8 °F 55% 29.94 in 10.0 mi NNW 3.5 mph - N/A   Clear
7:55 PM 86.0 °F 90.4 °F 69.8 °F 58% 29.94 in 10.0 mi NNW 4.6 mph - N/A   Clear
8:15 PM 86.0 °F 90.4 °F 69.8 °F 58% 29.94 in 10.0 mi NNW 3.5 mph - N/A   Clear
8:35 PM 84.2 °F 88.4 °F 69.8 °F 62% 29.95 in 10.0 mi Calm Calm - N/A   Clear
8:55 PM 84.2 °F 88.4 °F 69.8 °F 62% 29.95 in 10.0 mi Calm Calm - N/A   Clear
9:15 PM 82.4 °F 86.3 °F 69.8 °F 66% 29.95 in 10.0 mi NW 4.6 mph - N/A   Clear
9:35 PM 84.2 °F 88.4 °F 69.8 °F 62% 29.94 in 10.0 mi West 4.6 mph - N/A   Clear
9:55 PM 82.4 °F 86.3 °F 69.8 °F 66% 29.94 in 10.0 mi WNW 4.6 mph - N/A   Clear
10:15 PM 82.4 °F 86.3 °F 69.8 °F 66% 29.95 in 10.0 mi NNW 4.6 mph - N/A   Clear
10:35 PM 80.6 °F 83.9 °F 69.8 °F 70% 29.95 in 10.0 mi NW 3.5 mph - N/A   Clear
10:55 PM 80.6 °F 83.9 °F 69.8 °F 70% 29.95 in 10.0 mi Calm Calm - N/A   Clear
11:15 PM 78.8 °F - 69.8 °F 74% 29.96 in 10.0 mi Calm Calm - N/A   Clear
11:35 PM 78.8 °F - 69.8 °F 74% 29.96 in 10.0 mi NW 3.5 mph - N/A   Clear
11:55 PM 77.0 °F - 68.0 °F 74% 29.95 in 3.0 mi Calm Calm - N/A   Clear